Williamsport, PA

3:28 AM EDT on September 20, 2019 (GMT -0400)
Williamsport Rgnl

Weather History for KIPT - August, 2019

Change the Weather History Date:

Saturday, August 24, 2019

  Actual Average Record
Temperature  
Mean Temperature 64 °F 70 °F  
Max Temperature 75 °F 81 °F 94 °F (1918)
Min Temperature 53 °F 60 °F 42 °F (1940)
Degree Days  
Heating Degree Days 1 0  
Month to date heating degree days 1 0  
Since 1 June heating degree days 30 41  
Since 1 July heating degree days 1 4  
Cooling Degree Days 0 6  
Month to date cooling degree days 216 166  
Year to date cooling degree days 752 599  
Since 1 June cooling degree days 700 556  
Growing Degree Days 14 (Base 50)    
Moisture  
Dew Point 51 °F    
Average Humidity 64    
Maximum Humidity 93    
Minimum Humidity 35    
Precipitation  
Precipitation 0.00 in 0.12 in 5.22 in (1933)
Month to date precipitation 2.68 3.01  
Year to date precipitation 35.50 26.18  
Sea Level Pressure  
Sea Level Pressure 30.21 in    
Wind  
Wind Speed 3 mph (NW)    
Max Wind Speed 14 mph    
Max Gust Speed 18 mph    
Visibility 10 miles    
Events      
T = Trace of Precipitation, MM = Missing Value Source: NWS Daily Summary

Daily Weather History Graph

Daily Weather History Graph

Search for Another Location

Airport or City:

Astronomy

Aug. 24, 2019 Rise Set
Actual Time 6:25 AM EDT 7:53 PM EDT
Civil Twilight 5:56 AM EDT 8:22 PM EDT
Nautical Twilight 5:22 AM EDT 8:57 PM EDT
Astronomical Twilight 4:45 AM EDT 9:33 PM EDT
Moon 12:16 AM EDT (8/24) 3:08 PM EDT (8/24)
Length of Visible Light 14h 25m
Length of Day
13h 27m
Last Quarter, 39% of the Moon is Illuminated
Aug 24
Last Quarter
Aug 30
New
Sep 5
First Quarter
Sep 14
Full
Sep 21
Last Quarter

Hourly Weather History & Observations

Time (EDT) Temp. Dew Point Humidity Pressure Visibility Wind Dir Wind Speed Gust Speed Precip Events Conditions
12:54 AM 57.9 °F 55.0 °F 90% 30.16 in 10.0 mi Calm Calm - N/A   Clear
1:54 AM 55.9 °F 53.1 °F 90% 30.16 in 10.0 mi Calm Calm - N/A   Clear
2:54 AM 55.9 °F 53.1 °F 90% 30.15 in 10.0 mi Calm Calm - N/A   Clear
3:54 AM 55.0 °F 53.1 °F 93% 30.16 in 10.0 mi Calm Calm - N/A   Clear
4:54 AM 55.0 °F 52.0 °F 89% 30.17 in 10.0 mi Calm Calm - N/A   Clear
5:17 AM 54.0 °F 52.0 °F 93% 30.18 in 10.0 mi Calm Calm - N/A   Scattered Clouds
5:54 AM 53.1 °F 51.1 °F 93% 30.19 in 10.0 mi WNW 3.5 mph - N/A   Clear
6:03 AM 53.1 °F 51.1 °F 93% 30.19 in 10.0 mi WNW 3.5 mph - N/A   Scattered Clouds
6:14 AM 53.1 °F 51.1 °F 93% 30.20 in 10.0 mi Calm Calm - N/A   Mostly Cloudy
6:54 AM 54.0 °F 51.1 °F 90% 30.22 in 10.0 mi NNW 3.5 mph - N/A   Mostly Cloudy
7:20 AM 55.9 °F 53.1 °F 90% 30.22 in 10.0 mi Calm Calm - N/A   Partly Cloudy
7:54 AM 57.9 °F 54.0 °F 87% 30.23 in 10.0 mi WSW 3.5 mph - N/A   Clear
8:54 AM 60.1 °F 54.0 °F 80% 30.24 in 10.0 mi West 9.2 mph - N/A   Clear
9:54 AM 64.0 °F 54.0 °F 70% 30.24 in 10.0 mi SW 6.9 mph - N/A   Clear
10:54 AM 66.9 °F 53.1 °F 61% 30.23 in 10.0 mi SW 6.9 mph - N/A   Scattered Clouds
11:54 AM 71.1 °F 44.1 °F 38% 30.22 in 10.0 mi North 6.9 mph - N/A   Mostly Cloudy
12:54 PM 72.0 °F 46.9 °F 41% 30.21 in 10.0 mi Variable 3.5 mph - N/A   Mostly Cloudy
1:54 PM 72.0 °F 46.9 °F 41% 30.21 in 10.0 mi North 11.5 mph - N/A   Mostly Cloudy
2:54 PM 72.0 °F 45.0 °F 38% 30.20 in 10.0 mi North 4.6 mph - N/A   Overcast
3:54 PM 73.9 °F 46.0 °F 37% 30.19 in 10.0 mi Variable 4.6 mph - N/A   Mostly Cloudy
4:54 PM 72.0 °F 43.0 °F 35% 30.19 in 10.0 mi Calm Calm - N/A   Scattered Clouds
5:54 PM 72.0 °F 46.0 °F 40% 30.19 in 10.0 mi NNE 4.6 mph - N/A   Scattered Clouds
6:54 PM 70.0 °F 51.1 °F 51% 30.20 in 10.0 mi Calm Calm - N/A   Scattered Clouds
7:54 PM 66.9 °F 53.1 °F 61% 30.22 in 10.0 mi Calm Calm - N/A   Scattered Clouds
8:54 PM 64.0 °F 55.0 °F 73% 30.24 in 10.0 mi Calm Calm - N/A   Overcast
9:54 PM 63.0 °F 55.0 °F 75% 30.26 in 10.0 mi Calm Calm - N/A   Overcast
10:54 PM 63.0 °F 53.1 °F 70% 30.26 in 10.0 mi Calm Calm - N/A   Overcast
11:54 PM 60.1 °F 54.0 °F 80% 30.26 in 10.0 mi Calm Calm - N/A   Overcast